When you browse on this site, cookies collect data to enhance your experience and personalize the content and advertising you see.
Visit our Privacy Policy to learn more. By continuing to use the site, you agree to this use of cookies and data.
  • In United Kingdom
  • List of Countries
  • For 7 days
  • Water Temperature
  • Satellite Maps
  • Weather Map
  • Weather Widgets
  • user-avatar
    Login

    Hourly Weather Mafeteng

    Today, 19 July, Friday

    Time Temperature Precipitation Wind Pressure Humidity
    00:00 +6°C° 0 mm 2 mps 626 mmHg 29%
    01:00 +5°C° 0 mm 2 mps 625 mmHg 30%
    02:00 +5°C° 0 mm 2 mps 625 mmHg 33%
    03:00 +4°C° 0 mm 2 mps 624 mmHg 34%
    04:00 +4°C° 0 mm 2 mps 624 mmHg 35%
    05:00 +4°C° 0 mm 2 mps 624 mmHg 35%
    06:00 +4°C° 0 mm 2 mps 624 mmHg 34%
    07:00 +5°C° 0 mm 2 mps 625 mmHg 33%
    08:00 +6°C° 0 mm 2 mps 626 mmHg 33%
    09:00 +9°C° 0 mm 3 mps 626 mmHg 32%
    10:00 +11°C° 0 mm 4 mps 627 mmHg 31%
    11:00 +13°C° 0 mm 5 mps 628 mmHg 30%
    12:00 +14°C° 0 mm 6 mps 627 mmHg 33%
    13:00 +15°C° 0 mm 7 mps 627 mmHg 35%
    14:00 +15°C° 0 mm 8 mps 627 mmHg 38%
    15:00 +13°C° 0 mm 8 mps 626 mmHg 43%
    16:00 +12°C° 0 mm 7 mps 626 mmHg 48%
    17:00 +11°C° 0 mm 6 mps 625 mmHg 52%
    18:00 +9°C° 0 mm 5 mps 625 mmHg 62%
    19:00 +7°C° 0 mm 4 mps 624 mmHg 71%
    20:00 +5°C° 0 mm 3 mps 624 mmHg 80%
    21:00 +5°C° 0 mm 3 mps 624 mmHg 82%
    22:00 +4°C° 0 mm 3 mps 624 mmHg 84%
    23:00 +4°C° 0 mm 3 mps 624 mmHg 86%

    Tomorrow, 20 July, Saturday

    Time Temperature Precipitation Wind Pressure Humidity
    00:00 +4°C° 0 mm 3 mps 624 mmHg 88%
    01:00 +3°C° 0 mm 3 mps 624 mmHg 90%
    02:00 +3°C° 0 mm 2 mps 624 mmHg 91%
    03:00 +3°C° 0 mm 2 mps 624 mmHg 92%
    04:00 +2°C° 0 mm 2 mps 623 mmHg 93%
    05:00 +2°C° 0 mm 1 mps 623 mmHg 94%
    06:00 +2°C° 0 mm 2 mps 624 mmHg 89%
    07:00 +2°C° 0 mm 2 mps 625 mmHg 85%
    08:00 +3°C° 0 mm 2 mps 626 mmHg 80%
    09:00 +3°C° 0 mm 3 mps 626 mmHg 67%
    10:00 +4°C° 0 mm 4 mps 627 mmHg 55%
    11:00 +5°C° 0 mm 5 mps 627 mmHg 42%
    12:00 +6°C° 0 mm 5 mps 627 mmHg 36%
    13:00 +6°C° 0 mm 5 mps 626 mmHg 30%
    14:00 +7°C° 0 mm 5 mps 626 mmHg 24%
    15:00 +6°C° 0 mm 5 mps 626 mmHg 26%
    16:00 +6°C° 0 mm 5 mps 626 mmHg 27%
    17:00 +5°C° 0 mm 4 mps 626 mmHg 28%
    18:00 +3°C° 0 mm 4 mps 627 mmHg 34%
    19:00 +2°C° 0 mm 3 mps 627 mmHg 40%
    20:00 0°C° 0 mm 3 mps 627 mmHg 46%
    21:00 -1°C° 0 mm 2 mps 627 mmHg 51%
    22:00 -2°C° 0 mm 2 mps 628 mmHg 55%
    23:00 0°C° 0 mm 1 mps 628 mmHg 60%

    Day after tomorrow, 21 July, Sunday

    Time Temperature Precipitation Wind Pressure Humidity
    00:00 -1°C° 0 mm 1 mps 627 mmHg 64%
    01:00 -2°C° 0 mm 1 mps 627 mmHg 67%
    02:00 -4°C° 0 mm 0 mps 627 mmHg 70%
    03:00 -4°C° 0 mm 0 mps 627 mmHg 72%
    04:00 -4°C° 0 mm 0 mps 626 mmHg 74%
    05:00 -5°C° 0 mm 0 mps 626 mmHg 76%
    06:00 -4°C° 0 mm 0 mps 627 mmHg 68%
    07:00 -1°C° 0 mm 1 mps 628 mmHg 60%
    08:00 0°C° 0 mm 1 mps 628 mmHg 52%
    09:00 +3°C° 0 mm 1 mps 629 mmHg 41%
    10:00 +5°C° 0 mm 2 mps 629 mmHg 30%
    11:00 +8°C° 0 mm 3 mps 630 mmHg 19%
    12:00 +9°C° 0 mm 3 mps 629 mmHg 17%
    13:00 +11°C° 0 mm 4 mps 629 mmHg 14%
    14:00 +12°C° 0 mm 4 mps 629 mmHg 12%
    15:00 +11°C° 0 mm 4 mps 629 mmHg 16%
    16:00 +11°C° 0 mm 3 mps 628 mmHg 19%
    17:00 +10°C° 0 mm 3 mps 628 mmHg 22%
    18:00 +8°C° 0 mm 3 mps 627 mmHg 25%
    19:00 +7°C° 0 mm 3 mps 627 mmHg 28%
    20:00 +5°C° 0 mm 2 mps 626 mmHg 31%
    21:00 +4°C° 0 mm 3 mps 627 mmHg 31%
    22:00 +3°C° 0 mm 3 mps 627 mmHg 31%
    23:00 +3°C° 0 mm 3 mps 627 mmHg 32%

    22 July, Monday

    Time Temperature Precipitation Wind Pressure Humidity
    00:00 +3°C° 0 mm 3 mps 627 mmHg 31%
    01:00 +2°C° 0 mm 3 mps 626 mmHg 31%
    02:00 +2°C° 0 mm 3 mps 626 mmHg 31%
    03:00 +2°C° 0 mm 3 mps 626 mmHg 32%
    04:00 +2°C° 0 mm 3 mps 626 mmHg 32%
    05:00 +2°C° 0 mm 3 mps 626 mmHg 33%
    06:00 +2°C° 0 mm 3 mps 627 mmHg 36%
    07:00 +3°C° 0 mm 3 mps 627 mmHg 38%
    08:00 +3°C° 0 mm 3 mps 628 mmHg 41%
    09:00 +6°C° 0 mm 4 mps 628 mmHg 39%
    10:00 +10°C° 0 mm 4 mps 628 mmHg 37%
    11:00 +13°C° 0 mm 5 mps 629 mmHg 35%
    12:00 +14°C° 0 mm 5 mps 628 mmHg 32%
    13:00 +15°C° 0 mm 6 mps 628 mmHg 29%
    14:00 +16°C° 0 mm 6 mps 627 mmHg 26%
    15:00 +15°C° 0 mm 5 mps 627 mmHg 28%
    16:00 +15°C° 0 mm 5 mps 626 mmHg 30%
    17:00 +14°C° 0 mm 4 mps 626 mmHg 32%
    18:00 +12°C° 0 mm 4 mps 626 mmHg 35%
    19:00 +11°C° 0 mm 4 mps 625 mmHg 38%
    20:00 +8°C° 0 mm 4 mps 625 mmHg 41%
    21:00 +7°C° 0 mm 4 mps 625 mmHg 42%
    22:00 +8°C° 0 mm 3 mps 625 mmHg 43%
    23:00 +8°C° 0 mm 3 mps 625 mmHg 43%

    23 July, Tuesday

    Time Temperature Precipitation Wind Pressure Humidity
    00:00 +6°C° 0 mm 4 mps 624 mmHg 44%
    01:00 +6°C° 0 mm 4 mps 624 mmHg 44%
    02:00 +6°C° 0 mm 4 mps 624 mmHg 44%
    03:00 +5°C° 0 mm 4 mps 623 mmHg 44%
    04:00 +5°C° 0 mm 4 mps 623 mmHg 44%
    05:00 +5°C° 0 mm 5 mps 623 mmHg 45%
    06:00 +5°C° 0 mm 5 mps 623 mmHg 44%
    07:00 +5°C° 0 mm 5 mps 623 mmHg 43%
    08:00 +6°C° 0 mm 5 mps 624 mmHg 42%
    09:00 +8°C° 0 mm 6 mps 624 mmHg 37%
    10:00 +11°C° 0 mm 8 mps 624 mmHg 32%
    11:00 +13°C° 0 mm 9 mps 624 mmHg 27%
    12:00 +16°C° 0 mm 10 mps 624 mmHg 24%
    13:00 +18°C° 0 mm 11 mps 623 mmHg 21%
    14:00 +19°C° 0 mm 11 mps 623 mmHg 19%
    15:00 +19°C° 0 mm 10 mps 622 mmHg 18%
    16:00 +18°C° 0 mm 10 mps 622 mmHg 18%
    17:00 +18°C° 0 mm 9 mps 622 mmHg 18%
    18:00 +16°C° 0 mm 8 mps 621 mmHg 20%
    19:00 +15°C° 0 mm 7 mps 621 mmHg 22%
    20:00 +12°C° 0 mm 7 mps 620 mmHg 24%
    21:00 +11°C° 0 mm 6 mps 620 mmHg 25%
    22:00 +10°C° 0 mm 6 mps 619 mmHg 27%
    23:00 +9°C° 0 mm 5 mps 619 mmHg 28%

    24 July, Wednesday

    Time Temperature Precipitation Wind Pressure Humidity
    00:00 +8°C° 0 mm 6 mps 619 mmHg 35%
    01:00 +5°C° 0 mm 6 mps 618 mmHg 41%
    02:00 +4°C° 0 mm 6 mps 618 mmHg 48%
    03:00 +2°C° 0.1 mm 8 mps 619 mmHg 61%
    04:00 +1°C° 0.1 mm 10 mps 619 mmHg 75%
    05:00 -1°C° 0.1 mm 13 mps 620 mmHg 89%
    06:00 -2°C° 0.1 mm 11 mps 621 mmHg 82%
    07:00 -2°C° 0.1 mm 10 mps 622 mmHg 75%
    08:00 -2°C° 0.1 mm 8 mps 622 mmHg 68%
    09:00 -1°C° 0 mm 9 mps 623 mmHg 61%
    10:00 0°C° 0 mm 9 mps 624 mmHg 55%
    11:00 +2°C° 0 mm 10 mps 625 mmHg 48%
    12:00 +2°C° 0 mm 9 mps 625 mmHg 47%
    13:00 +4°C° 0 mm 8 mps 625 mmHg 45%
    14:00 +4°C° 0 mm 6 mps 625 mmHg 44%
    15:00 +5°C° 0 mm 5 mps 626 mmHg 43%
    16:00 +5°C° 0 mm 4 mps 626 mmHg 42%
    17:00 +6°C° 0 mm 2 mps 626 mmHg 41%
    18:00 +4°C° 0 mm 2 mps 626 mmHg 47%
    19:00 +3°C° 0 mm 1 mps 626 mmHg 52%
    20:00 +2°C° 0 mm 1 mps 626 mmHg 58%
    21:00 +1°C° 0 mm 1 mps 626 mmHg 61%
    22:00 +1°C° 0 mm 1 mps 626 mmHg 63%
    23:00 -1°C° 0 mm 0 mps 626 mmHg 66%
    Show more